Weather History for Teterboro, NJ

Change the Weather History Date:

Wednesday, November 21, 2012

  Actual Average Record
Temperature  
Mean Temperature 46 °F -  
Max Temperature 55 °F 50 °F 66 °F (1991)
Min Temperature 36 °F 35 °F 25 °F (2008)
Degree Days  
Heating Degree Days 20    
Moisture  
Dew Point 29 °F    
Average Humidity 54    
Maximum Humidity 76    
Minimum Humidity 33    
Precipitation  
Precipitation 0.00 in - - ()
Sea Level Pressure  
Sea Level Pressure 30.19 in    
Wind  
Wind Speed 3 mph (North)    
Max Wind Speed 7 mph    
Max Gust Speed -    
Visibility 10 miles    
Events      
Averages and records for this station are not official NWS values.
T = Trace of Precipitation, MM = Missing Value Source: NWS Daily Summary

Daily Weather History Graph

Daily Weather History Graph

Search for Another Location

Airport:

Trip Planner

Search our weather history database for the weather conditions in past years. The results will help you decide how hot, cold, wet, or windy it might be!

Date:

Astronomy

Nov. 21, 2012 Rise Set
Actual Time 6:50 AM EST 4:33 PM EST
Civil Twilight 6:21 AM EST 5:03 PM EST
Nautical Twilight 5:47 AM EST 5:36 PM EST
Astronomical Twilight 5:14 AM EST 6:09 PM EST
Moon 12:50 PM EST (11/21) 12:04 AM EST (11/21)
Length of Visible Light 10h 42m
Length of Day
9h 42m
First Quarter, 61% of the Moon is Illuminated
Nov 21
First Quarter
Nov 28
Full
Dec 6
Last Quarter
Dec 13
New
Dec 20
First Quarter

Hourly Weather History & Observations

Time (EST) Temp. Windchill Dew Point Humidity Pressure Visibility Wind Dir Wind Speed Gust Speed Precip Events Conditions
12:51 AM 41.0 °F - 30.9 °F 67% 30.14 in 10.0 mi Calm Calm - N/A   Clear
1:51 AM 41.0 °F 39.0 °F 32.0 °F 70% 30.15 in 10.0 mi North 3.5 mph - N/A   Clear
2:51 AM 39.9 °F 37.8 °F 30.9 °F 70% 30.16 in 10.0 mi North 3.5 mph - N/A   Clear
3:51 AM 39.0 °F 36.8 °F 30.0 °F 70% 30.16 in 10.0 mi North 3.5 mph - N/A   Clear
4:51 AM 37.9 °F 35.5 °F 30.0 °F 73% 30.17 in 10.0 mi North 3.5 mph - N/A   Clear
5:51 AM 37.0 °F - 28.9 °F 73% 30.19 in 10.0 mi Calm Calm - N/A   Clear
6:51 AM 36.0 °F 33.3 °F 28.9 °F 76% 30.19 in 10.0 mi NNW 3.5 mph - N/A   Clear
7:51 AM 39.9 °F 36.7 °F 30.0 °F 68% 30.21 in 10.0 mi North 4.6 mph - N/A   Clear
8:51 AM 44.1 °F 40.8 °F 32.0 °F 63% 30.21 in 10.0 mi North 5.8 mph - N/A   Clear
9:51 AM 48.0 °F - 30.0 °F 50% 30.21 in 10.0 mi NNE 6.9 mph - N/A   Clear
10:51 AM 51.1 °F - 32.0 °F 48% 30.21 in 10.0 mi NE 6.9 mph - N/A   Clear
11:51 AM 52.0 °F - 30.0 °F 43% 30.19 in 10.0 mi Variable 4.6 mph - N/A   Clear
12:51 PM 54.0 °F - 30.0 °F 40% 30.18 in 10.0 mi Calm Calm - N/A   Clear
1:51 PM 54.0 °F - 28.0 °F 37% 30.16 in 10.0 mi Variable 4.6 mph - N/A   Clear
2:51 PM 55.0 °F - 27.0 °F 34% 30.16 in 10.0 mi WNW 4.6 mph - N/A   Clear
3:51 PM 54.0 °F - 25.0 °F 33% 30.17 in 10.0 mi Calm Calm - N/A   Clear
4:51 PM 52.0 °F - 24.1 °F 34% 30.18 in 10.0 mi Calm Calm - N/A   Clear
5:51 PM 46.0 °F - 26.1 °F 46% 30.19 in 10.0 mi Calm Calm - N/A   Clear
6:51 PM 48.0 °F - 27.0 °F 44% 30.21 in 10.0 mi Calm Calm - N/A   Clear
7:51 PM 46.0 °F 44.8 °F 27.0 °F 47% 30.23 in 10.0 mi North 3.5 mph - N/A   Clear
8:51 PM 44.1 °F 42.5 °F 27.0 °F 51% 30.23 in 10.0 mi North 3.5 mph - N/A   Clear
9:51 PM 42.1 °F - 27.0 °F 55% 30.23 in 10.0 mi Calm Calm - N/A   Clear
10:51 PM 42.1 °F 40.2 °F 27.0 °F 55% 30.23 in 10.0 mi North 3.5 mph - N/A   Clear
11:51 PM 39.0 °F - 26.1 °F 60% 30.23 in 10.0 mi Calm Calm - N/A   Clear